User: anonymous   Login
Location: Unspecified
(0.0000°N, 0.0000°E)
Time: 19:16:04
(UTC+00:00)
Language:

TIMED - Orbit

View from above orbital plane
View from above orbital plane
View from above satellite
View from above satellite

Ground track
Ground track

The orbit data is extracted from the following two-line orbital elements,

1 26998U 01055B   21171.30066503  .00000108  00000-0  15777-4 0  9990
2 26998  74.0728 280.8553 0002218 270.9579  89.1348 14.88315313 59269
Epoch (UTC): 20 June 2021 07:12:57
Eccentricity: 0.0002218
inclination: 74.0728°
perigee height: 601 km
apogee height: 605 km
right ascension of ascending node: 280.8553°
argument of perigee: 270.9579°
revolutions per day: 14.88315313
mean anomaly at epoch: 89.1348°
orbit number at epoch: 5926

The dashed part of the orbit path shows where the satellite is in the earth's shadow,  

DLR